Weather History for VTUK - January, 2013

Change the Weather History Date:

Friday, January 18, 2013

  Actual Average Record
Temperature  
Mean Temperature 72 °F -  
Max Temperature 83 °F 89 °F - ()
Min Temperature 62 °F 65 °F - ()
Cooling Degree Days 8    
Growing Degree Days 22 (Base 50)    
Moisture  
Dew Point 59 °F    
Average Humidity 60    
Maximum Humidity 88    
Minimum Humidity 31    
Precipitation  
Precipitation 0.00 in 0.01 in - ()
Sea Level Pressure  
Sea Level Pressure 30.09 in    
Wind  
Wind Speed 7 mph ()    
Max Wind Speed 14 mph    
Max Gust Speed -    
Visibility 5.9 miles    
Events      
T = Trace of Precipitation, MM = Missing Value Source: Averaged Metar Reports

Daily Weather History Graph

Daily Weather History Graph

Search for Another Location

Airport or City:

Trip Planner

Search our weather history database for the weather conditions in past years. The results will help you decide how hot, cold, wet, or windy it might be!

Date:

Astronomy

Jan. 18, 2013 Rise Set
Actual Time 6:40 AM ICT 5:57 PM ICT
Civil Twilight 6:17 AM ICT 6:20 PM ICT
Nautical Twilight 5:51 AM ICT 6:47 PM ICT
Astronomical Twilight 5:25 AM ICT 7:13 PM ICT
Moon 11:12 AM ICT (1/18) No Moon Set
Length of Visible Light 12h 02m
Length of Day
11h 16m
Waxing Crescent, 42% of the Moon is Illuminated
Jan 18
Waxing Crescent
Jan 19
First Quarter
Jan 27
Full
Feb 3
Last Quarter
Feb 10
New

Hourly Weather History & Observations

Time (ICT) Temp. Heat Index Dew Point Humidity Pressure Visibility Wind Dir Wind Speed Gust Speed Precip Events Conditions
4:00 AM 64.4 °F - 60.8 °F 88% 30.09 in - NE 5.8 mph - N/A   Clear
6:00 AM 62.6 °F - 59.0 °F 88% 30.12 in 5.6 mi North 3.5 mph - N/A   Unknown
7:00 AM 64 °F - 56 °F 69% 30.14 in 4 mi North 3.5 mph - -   Mist
7:00 AM 62.6 °F - 59.0 °F 88% 30.15 in 4.3 mi North 3.5 mph - N/A   Unknown
8:00 AM 66.2 °F - 60.8 °F 83% 30.15 in 5.6 mi North 6.9 mph - N/A   Unknown
9:00 AM 71.6 °F - 60.8 °F 69% 30.18 in - NE 11.5 mph - N/A   Clear
10:00 AM 75.2 °F - 60.8 °F 61% 30.18 in 6.2 mi NE 13.8 mph - N/A   Partly Cloudy
11:00 AM 77.0 °F - 60.8 °F 57% 30.15 in 6.2 mi ENE 12.7 mph - N/A   Partly Cloudy
12:00 PM 80.6 °F 81.5 °F 60.8 °F 51% 30.12 in 6.2 mi East 9.2 mph - N/A   Partly Cloudy
1:00 PM 81 °F - 56 °F 31% 30.06 in 7 mi NE 9.2 mph - -   Partly Cloudy
1:00 PM 82.4 °F 82.5 °F 59.0 °F 45% 30.06 in 6.2 mi NE 11.5 mph - N/A   Scattered Clouds
2:00 PM 82.4 °F 82.5 °F 59.0 °F 45% 30.04 in 6.2 mi NE 11.5 mph - N/A   Scattered Clouds
3:00 PM 82.4 °F 82.5 °F 59.0 °F 45% 30.01 in 6.2 mi ENE 11.5 mph - N/A   Scattered Clouds
4:00 PM 80.6 °F 81.1 °F 59.0 °F 48% 30.01 in 6.2 mi ENE 13.8 mph - N/A   Scattered Clouds
5:00 PM 80.6 °F 81.5 °F 60.8 °F 51% 30.01 in 6.2 mi ENE 11.5 mph - N/A   Partly Cloudy
6:00 PM 77.0 °F - 60.8 °F 57% 30.04 in 6.2 mi East 11.5 mph - N/A   Partly Cloudy
7:00 PM 75 °F - 55 °F 39% 30.02 in 6 mi East 11.5 mph - -   Scattered Clouds
7:00 PM 75.2 °F - 59.0 °F 57% 30.04 in 6.2 mi East 11.5 mph - N/A   Partly Cloudy
8:00 PM 73.4 °F - 60.8 °F 65% 30.06 in 6.2 mi East 13.8 mph - N/A   Partly Cloudy